SAS36P EDDH-ESSA

Flight info

Callsign SAS36P
Flight time 1h 17m
Altitude 37000
Route LUGEG3G LUGEG P605 MEGAR DCT KUBIS DCT MIKNA N851 PELUP Z226 NILUG NILUG3P
Aircraft A320/M-SDE3FGHIRWY/LB1

Departure

Time 2026-05-05 09:26
Airport Hamburg Helmut Schmidt Airport (EDDH)

Arrival

Time 2026-05-05 10:44
Airport Stockholm-Arlanda Airport (ESSA)
Time Latitude Longitude Altitude Speed Heading
2026-05-05 09:04 53.63292 10.00358 49 ft 0 kts 87°
2026-05-05 09:19 53.63292 10.00335 48 ft 3 kts 87°
2026-05-05 09:19 53.63291 10.00306 48 ft 3 kts 87°
2026-05-05 09:19 53.63290 10.00277 48 ft 2 kts 87°
2026-05-05 09:19 53.63293 10.00249 48 ft 2 kts 141°
2026-05-05 09:20 53.63302 10.00240 44 ft 0 kts 180°
2026-05-05 09:22 53.63279 10.00243 45 ft 13 kts 174°
2026-05-05 09:22 53.63253 10.00241 48 ft 4 kts 184°
2026-05-05 09:23 53.63214 10.00246 48 ft 7 kts 174°
2026-05-05 09:23 53.63157 10.00255 47 ft 9 kts 175°
2026-05-05 09:23 53.63084 10.00260 48 ft 11 kts 184°
2026-05-05 09:23 53.63011 10.00200 48 ft 12 kts 211°
2026-05-05 09:24 53.62943 10.00131 48 ft 9 kts 210°
2026-05-05 09:24 53.62897 10.00083 47 ft 7 kts 219°
2026-05-05 09:24 53.62860 10.00007 48 ft 10 kts 240°
2026-05-05 09:24 53.62827 9.99901 47 ft 11 kts 243°
2026-05-05 09:25 53.62823 9.99789 45 ft 8 kts 311°
2026-05-05 09:25 53.62834 9.99777 44 ft 0 kts 328°
2026-05-05 09:25 53.62877 9.99737 45 ft 31 kts 332°
2026-05-05 09:25 53.63297 9.99376 47 ft 101 kts 332°
2026-05-05 09:26 53.64080 9.98697 53 ft 150 kts 333°
2026-05-05 09:26 53.65061 9.97844 474 ft 162 kts 334°
2026-05-05 09:26 53.66080 9.96963 1148 ft 168 kts 336°
2026-05-05 09:26 53.67169 9.96033 1624 ft 186 kts 336°
2026-05-05 09:27 53.68416 9.95014 2102 ft 208 kts 343°
2026-05-05 09:27 53.69857 9.94660 2963 ft 214 kts
2026-05-05 09:27 53.71364 9.94667 3787 ft 219 kts 360°
2026-05-05 09:27 53.72869 9.95154 4653 ft 226 kts 24°
2026-05-05 09:28 53.74121 9.96857 5317 ft 245 kts 55°
2026-05-05 09:28 53.74954 9.99525 5796 ft 269 kts 64°
2026-05-05 09:28 53.75771 10.02406 6483 ft 280 kts 64°
2026-05-05 09:28 53.76625 10.05408 7275 ft 286 kts 64°
2026-05-05 09:29 53.77500 10.08457 8138 ft 290 kts 64°
2026-05-05 09:29 53.78389 10.11546 8987 ft 295 kts 64°
2026-05-05 09:29 53.79294 10.14693 9697 ft 300 kts 65°
2026-05-05 09:29 53.80211 10.17899 10262 ft 310 kts 65°
2026-05-05 09:30 53.81185 10.21306 10524 ft 332 kts 64°
2026-05-05 09:30 53.82212 10.24893 11023 ft 344 kts 64°
2026-05-05 09:30 53.83265 10.28570 11735 ft 349 kts 64°
2026-05-05 09:30 53.84327 10.32287 12502 ft 353 kts 64°
2026-05-05 09:31 53.85401 10.36051 13256 ft 357 kts 63°
2026-05-05 09:31 53.86483 10.39856 13975 ft 360 kts 63°
2026-05-05 09:31 53.87576 10.43702 14596 ft 364 kts 63°
2026-05-05 09:31 53.88679 10.47595 15224 ft 368 kts 64°
2026-05-05 09:32 53.89791 10.51533 15847 ft 373 kts 64°
2026-05-05 09:32 53.90911 10.55519 16463 ft 376 kts 64°
2026-05-05 09:32 53.92042 10.59546 17088 ft 380 kts 64°
2026-05-05 09:32 53.93190 10.63611 17728 ft 384 kts 63°
2026-05-05 09:33 53.94596 10.67485 18313 ft 388 kts 52°
2026-05-05 09:33 53.96374 10.70942 18852 ft 391 kts 45°
2026-05-05 09:33 53.98248 10.74316 19428 ft 394 kts 45°
2026-05-05 09:33 54.00109 10.77686 19997 ft 398 kts 46°
2026-05-05 09:34 54.02007 10.81141 20566 ft 402 kts 46°
2026-05-05 09:34 54.03924 10.84648 21077 ft 406 kts 46°
2026-05-05 09:34 54.05857 10.88186 21601 ft 410 kts 46°
2026-05-05 09:34 54.07805 10.91757 22120 ft 414 kts 46°
2026-05-05 09:35 54.09775 10.95374 22650 ft 418 kts 46°
2026-05-05 09:35 54.13764 11.02719 23687 ft 426 kts 46°
2026-05-05 09:35 54.15777 11.06449 24150 ft 429 kts 46°
2026-05-05 09:36 54.17803 11.10220 24609 ft 432 kts 46°
2026-05-05 09:36 54.19842 11.14013 25067 ft 435 kts 46°
2026-05-05 09:36 54.21894 11.17831 25520 ft 437 kts 46°
2026-05-05 09:36 54.23955 11.21678 25962 ft 440 kts 46°
2026-05-05 09:37 54.26026 11.25555 26415 ft 443 kts 46°
2026-05-05 09:37 54.28106 11.29460 26850 ft 445 kts 46°
2026-05-05 09:37 54.30193 11.33387 27263 ft 447 kts 46°
2026-05-05 09:37 54.32292 11.37341 27661 ft 450 kts 46°
2026-05-05 09:38 54.34400 11.41318 28056 ft 452 kts 46°
2026-05-05 09:38 54.36521 11.45323 28448 ft 455 kts 46°
2026-05-05 09:38 54.38653 11.49353 28833 ft 457 kts 46°
2026-05-05 09:38 54.40798 11.53405 29222 ft 460 kts 46°
2026-05-05 09:39 54.42952 11.57477 29610 ft 462 kts 46°
2026-05-05 09:39 54.45127 11.61567 30006 ft 465 kts 44°
2026-05-05 09:39 54.47522 11.65318 30267 ft 467 kts 36°
2026-05-05 09:39 54.50198 11.68477 30569 ft 468 kts 29°
2026-05-05 09:40 54.52962 11.71459 30893 ft 470 kts 30°
2026-05-05 09:40 54.55702 11.74419 31212 ft 472 kts 30°
2026-05-05 09:40 54.58522 11.77476 31571 ft 473 kts 30°
2026-05-05 09:40 54.61264 11.80457 32026 ft 471 kts 30°
2026-05-05 09:41 54.64036 11.83474 32487 ft 470 kts 30°
2026-05-05 09:41 54.66801 11.86484 32945 ft 469 kts 30°
2026-05-05 09:41 54.69558 11.89498 33425 ft 468 kts 30°
2026-05-05 09:41 54.72305 11.92515 33883 ft 467 kts 30°
2026-05-05 09:42 54.75047 11.95533 34294 ft 466 kts 30°
2026-05-05 09:42 54.77781 11.98543 34644 ft 466 kts 30°
2026-05-05 09:42 54.80520 12.01561 34953 ft 467 kts 30°
2026-05-05 09:42 54.83262 12.04582 35256 ft 467 kts 30°
2026-05-05 09:43 54.86010 12.07615 35563 ft 468 kts 30°
2026-05-05 09:43 54.88754 12.10647 35875 ft 468 kts 30°
2026-05-05 09:43 54.91502 12.13688 36177 ft 468 kts 30°
2026-05-05 09:43 54.94250 12.16733 36497 ft 468 kts 30°
2026-05-05 09:44 54.96998 12.19777 36789 ft 468 kts 30°
2026-05-05 09:44 54.99749 12.22834 36944 ft 469 kts 30°
2026-05-05 09:44 55.05244 12.28970 36971 ft 468 kts 30°
2026-05-05 09:45 55.10725 12.35128 36975 ft 468 kts 30°
2026-05-05 09:45 55.16204 12.41287 36980 ft 468 kts 30°
2026-05-05 09:46 55.21677 12.47452 36970 ft 468 kts 30°
2026-05-05 09:46 55.27123 12.53720 36975 ft 468 kts 31°
2026-05-05 09:47 55.32529 12.60132 36986 ft 469 kts 31°
2026-05-05 09:47 55.37927 12.66591 36980 ft 470 kts 31°
2026-05-05 09:48 55.42427 12.71944 36984 ft 470 kts 31°
2026-05-05 09:48 55.48731 12.79425 36988 ft 470 kts 31°
2026-05-05 09:49 55.54144 12.85902 36991 ft 470 kts 31°
2026-05-05 09:49 55.58638 12.91291 36991 ft 470 kts 31°
2026-05-05 09:50 55.64049 12.97789 36997 ft 470 kts 31°
2026-05-05 09:50 55.69455 13.04331 36991 ft 471 kts 31°
2026-05-05 09:51 55.74872 13.10895 36983 ft 472 kts 31°
2026-05-05 09:51 55.80289 13.17475 36982 ft 472 kts 31°
2026-05-05 09:52 55.85712 13.24068 36978 ft 472 kts 31°
2026-05-05 09:52 55.91119 13.30679 36981 ft 471 kts 31°
2026-05-05 09:53 55.96514 13.37311 36974 ft 471 kts 31°
2026-05-05 09:53 56.01908 13.43966 36970 ft 471 kts 31°
2026-05-05 09:54 56.07303 13.50639 36969 ft 471 kts 31°
2026-05-05 09:54 56.12695 13.57318 36987 ft 471 kts 31°
2026-05-05 09:55 56.18081 13.64018 36977 ft 471 kts 31°
2026-05-05 09:55 56.23458 13.70742 36966 ft 471 kts 31°
2026-05-05 09:56 56.28837 13.77485 36967 ft 471 kts 31°
2026-05-05 09:56 56.34178 13.84193 36989 ft 471 kts 31°
2026-05-05 09:57 56.39584 13.91021 36959 ft 472 kts 31°
2026-05-05 09:57 56.44922 13.97792 36936 ft 472 kts 32°
2026-05-05 09:58 56.50290 14.04626 36937 ft 472 kts 32°
2026-05-05 09:58 56.55667 14.11464 36940 ft 472 kts 32°
2026-05-05 09:59 56.61033 14.18333 36955 ft 473 kts 32°
2026-05-05 09:59 56.66405 14.25241 36940 ft 473 kts 32°
2026-05-05 10:00 56.71777 14.32176 36923 ft 474 kts 32°
2026-05-05 10:00 56.77154 14.39131 36913 ft 474 kts 32°
2026-05-05 10:01 56.82527 14.46108 36940 ft 475 kts 31°
2026-05-05 10:01 56.87916 14.53119 36917 ft 475 kts 32°
2026-05-05 10:02 56.93292 14.60162 36906 ft 476 kts 32°
2026-05-05 10:02 56.98675 14.67237 36927 ft 476 kts 32°
2026-05-05 10:03 57.04063 14.74334 36926 ft 476 kts 32°
2026-05-05 10:03 57.09414 14.81402 36940 ft 477 kts 32°
2026-05-05 10:04 57.14803 14.88559 36927 ft 478 kts 32°
2026-05-05 10:04 57.20193 14.95750 36920 ft 478 kts 32°
2026-05-05 10:05 57.25581 15.02949 36898 ft 478 kts 32°
2026-05-05 10:05 57.30963 15.10171 36938 ft 479 kts 32°
2026-05-05 10:06 57.36357 15.17441 36924 ft 480 kts 32°
2026-05-05 10:06 57.41758 15.24730 36908 ft 480 kts 32°
2026-05-05 10:07 57.47154 15.32051 36906 ft 481 kts 32°
2026-05-05 10:07 57.52545 15.39401 36905 ft 480 kts 32°
2026-05-05 10:08 57.57902 15.46741 36922 ft 481 kts 32°
2026-05-05 10:08 57.63294 15.54139 36913 ft 482 kts 32°
2026-05-05 10:09 57.68698 15.61567 36908 ft 482 kts 32°
2026-05-05 10:09 57.74087 15.69027 36873 ft 483 kts 32°
2026-05-05 10:10 57.76794 15.72789 36468 ft 483 kts 32°
2026-05-05 10:10 57.79488 15.76533 36041 ft 482 kts 32°
2026-05-05 10:10 57.82183 15.80281 35582 ft 482 kts 32°
2026-05-05 10:10 57.84871 15.84029 35087 ft 480 kts 32°
2026-05-05 10:11 57.87544 15.87768 34601 ft 478 kts 32°
2026-05-05 10:11 57.90204 15.91492 34125 ft 476 kts 32°
2026-05-05 10:11 57.92849 15.95242 33612 ft 475 kts 32°
2026-05-05 10:11 57.95422 15.98998 33070 ft 474 kts 33°
2026-05-05 10:12 57.98000 16.02846 32525 ft 472 kts 34°
2026-05-05 10:12 58.00591 16.06749 32002 ft 470 kts 34°
2026-05-05 10:12 58.03139 16.10588 31528 ft 468 kts 33°
2026-05-05 10:12 58.05646 16.14355 31000 ft 466 kts 33°
2026-05-05 10:13 58.08180 16.18151 30491 ft 464 kts 33°
2026-05-05 10:13 58.10705 16.21924 30013 ft 462 kts 33°
2026-05-05 10:13 58.13226 16.25696 29443 ft 460 kts 33°
2026-05-05 10:13 58.15728 16.29446 28874 ft 459 kts 33°
2026-05-05 10:14 58.18223 16.33194 28321 ft 457 kts 33°
2026-05-05 10:14 58.20713 16.36940 27778 ft 456 kts 33°
2026-05-05 10:14 58.23191 16.40682 27235 ft 455 kts 33°
2026-05-05 10:14 58.25661 16.44419 26701 ft 453 kts 34°
2026-05-05 10:15 58.27998 16.48468 26244 ft 458 kts 43°
2026-05-05 10:15 58.30015 16.53171 25730 ft 460 kts 50°
2026-05-05 10:15 58.31921 16.58061 25227 ft 459 kts 50°
2026-05-05 10:15 58.33823 16.62937 24738 ft 459 kts 50°
2026-05-05 10:16 58.35723 16.67810 24260 ft 458 kts 50°
2026-05-05 10:16 58.37620 16.72683 23787 ft 457 kts 50°
2026-05-05 10:16 58.39512 16.77546 23292 ft 457 kts 50°
2026-05-05 10:16 58.41379 16.82345 22743 ft 456 kts 50°
2026-05-05 10:17 58.43264 16.87199 22198 ft 455 kts 50°
2026-05-05 10:17 58.45144 16.92053 21661 ft 454 kts 50°
2026-05-05 10:17 58.47015 16.96896 21136 ft 452 kts 51°
2026-05-05 10:17 58.48871 17.01727 20668 ft 450 kts 51°
2026-05-05 10:18 58.50715 17.06547 20159 ft 448 kts 51°
2026-05-05 10:18 58.52546 17.11346 19622 ft 445 kts 51°
2026-05-05 10:18 58.54364 17.16121 19131 ft 442 kts 51°
2026-05-05 10:18 58.56171 17.20869 18648 ft 439 kts 51°
2026-05-05 10:19 58.57964 17.25583 18172 ft 436 kts 51°
2026-05-05 10:19 58.59739 17.30249 17633 ft 432 kts 51°
2026-05-05 10:19 58.61500 17.34883 17093 ft 428 kts 51°
2026-05-05 10:19 58.63240 17.39479 16566 ft 424 kts 51°
2026-05-05 10:20 58.64963 17.44034 16031 ft 419 kts 51°
2026-05-05 10:20 58.66665 17.48546 15531 ft 415 kts 51°
2026-05-05 10:20 58.68352 17.53023 15022 ft 411 kts 51°
2026-05-05 10:20 58.70022 17.57461 14570 ft 408 kts 50°
2026-05-05 10:21 58.71677 17.61866 14081 ft 405 kts 50°
2026-05-05 10:21 58.73317 17.66243 13583 ft 402 kts 50°
2026-05-05 10:21 58.74943 17.70591 13049 ft 398 kts 51°
2026-05-05 10:21 58.76552 17.74907 12510 ft 395 kts 51°
2026-05-05 10:22 58.78144 17.79192 11989 ft 392 kts 51°
2026-05-05 10:22 58.79709 17.83377 11484 ft 387 kts 49°
2026-05-05 10:22 58.81511 17.87148 10969 ft 379 kts 37°
2026-05-05 10:22 58.83585 17.90179 10460 ft 370 kts 26°
2026-05-05 10:23 58.85833 17.92466 9983 ft 362 kts 20°
2026-05-05 10:23 58.88059 17.94555 9814 ft 349 kts 20°
2026-05-05 10:23 58.90182 17.96570 9821 ft 332 kts 20°
2026-05-05 10:23 58.92204 17.98499 9845 ft 317 kts 20°
2026-05-05 10:24 58.94166 18.00362 9836 ft 313 kts 19°
2026-05-05 10:24 58.96120 18.02205 9825 ft 312 kts 19°
2026-05-05 10:24 58.98073 18.04049 9829 ft 312 kts 19°
2026-05-05 10:24 59.00023 18.05899 9824 ft 312 kts 19°
2026-05-05 10:25 59.01976 18.07758 9823 ft 312 kts 19°
2026-05-05 10:25 59.03923 18.09616 9825 ft 312 kts 19°
2026-05-05 10:25 59.05870 18.11476 9821 ft 312 kts 19°
2026-05-05 10:25 59.07817 18.13334 9830 ft 311 kts 18°
2026-05-05 10:26 59.09826 18.14766 9828 ft 304 kts
2026-05-05 10:26 59.11881 18.15464 9827 ft 297 kts 356°
2026-05-05 10:26 59.13926 18.15707 9823 ft 288 kts 355°
2026-05-05 10:26 59.15881 18.15947 9834 ft 274 kts 354°
2026-05-05 10:27 59.17742 18.16173 9835 ft 263 kts 354°
2026-05-05 10:27 59.19543 18.16379 9853 ft 262 kts 354°
2026-05-05 10:27 59.21355 18.16577 9836 ft 260 kts 354°
2026-05-05 10:27 59.23167 18.16779 9834 ft 260 kts 354°
2026-05-05 10:28 59.24976 18.16987 9832 ft 261 kts 354°
2026-05-05 10:28 59.26791 18.17196 9833 ft 261 kts 354°
2026-05-05 10:28 59.28605 18.17408 9834 ft 261 kts 354°
2026-05-05 10:28 59.30419 18.17620 9835 ft 261 kts 354°
2026-05-05 10:29 59.32232 18.17830 9835 ft 261 kts 354°
2026-05-05 10:29 59.34045 18.18040 9835 ft 261 kts 354°
2026-05-05 10:29 59.35854 18.18254 9828 ft 261 kts 354°
2026-05-05 10:29 59.37676 18.18469 9522 ft 262 kts 354°
2026-05-05 10:30 59.39487 18.18687 9219 ft 261 kts 355°
2026-05-05 10:30 59.41296 18.18903 8881 ft 260 kts 355°
2026-05-05 10:30 59.43102 18.19116 8561 ft 260 kts 356°
2026-05-05 10:30 59.44905 18.19327 8239 ft 259 kts 356°
2026-05-05 10:31 59.46687 18.19543 7911 ft 253 kts 356°
2026-05-05 10:31 59.48391 18.19756 7620 ft 245 kts 358°
2026-05-05 10:31 59.50081 18.19967 7292 ft 242 kts 358°
2026-05-05 10:31 59.51761 18.20170 6982 ft 242 kts 358°
2026-05-05 10:32 59.53439 18.20435 6667 ft 243 kts
2026-05-05 10:32 59.55108 18.21028 6370 ft 244 kts
2026-05-05 10:32 59.56771 18.21630 6058 ft 242 kts
2026-05-05 10:32 59.58425 18.22232 5733 ft 241 kts
2026-05-05 10:33 59.60075 18.22833 5412 ft 241 kts
2026-05-05 10:33 59.61718 18.23435 5094 ft 240 kts
2026-05-05 10:33 59.63358 18.24034 4783 ft 240 kts
2026-05-05 10:33 59.65000 18.24631 4477 ft 240 kts
2026-05-05 10:34 59.66632 18.25225 4171 ft 238 kts
2026-05-05 10:34 59.68253 18.25814 3864 ft 237 kts
2026-05-05 10:34 59.69862 18.26401 3549 ft 231 kts
2026-05-05 10:34 59.71424 18.26977 3233 ft 226 kts
2026-05-05 10:35 59.72966 18.27544 2920 ft 225 kts
2026-05-05 10:35 59.74501 18.28107 2605 ft 224 kts
2026-05-05 10:35 59.76008 18.28664 2492 ft 211 kts
2026-05-05 10:35 59.77378 18.29180 2507 ft 194 kts
2026-05-05 10:36 59.78670 18.29665 2523 ft 186 kts
2026-05-05 10:36 59.79932 18.30129 2497 ft 183 kts
2026-05-05 10:36 59.81188 18.30509 2493 ft 180 kts 356°
2026-05-05 10:36 59.82423 18.30249 2496 ft 177 kts 341°
2026-05-05 10:37 59.83538 18.29313 2498 ft 173 kts 325°
2026-05-05 10:37 59.84464 18.27805 2501 ft 172 kts 310°
2026-05-05 10:37 59.85136 18.25860 2501 ft 171 kts 295°
2026-05-05 10:37 59.85510 18.23620 2497 ft 171 kts 280°
2026-05-05 10:38 59.85557 18.21288 2506 ft 172 kts 265°
2026-05-05 10:38 59.85269 18.18990 2496 ft 173 kts 251°
2026-05-05 10:38 59.84689 18.16882 2490 ft 174 kts 242°
2026-05-05 10:38 59.84071 18.14815 2487 ft 173 kts 243°
2026-05-05 10:39 59.83457 18.12739 2489 ft 175 kts 243°
2026-05-05 10:39 59.82837 18.10644 2491 ft 176 kts 243°
2026-05-05 10:39 59.82220 18.08561 2491 ft 174 kts 243°
2026-05-05 10:39 59.81607 18.06492 2494 ft 174 kts 243°
2026-05-05 10:40 59.80992 18.04409 2495 ft 175 kts 243°
2026-05-05 10:40 59.80289 18.02454 2476 ft 176 kts 229°
2026-05-05 10:40 59.79230 18.01168 2490 ft 183 kts 202°
2026-05-05 10:40 59.77973 18.00649 2494 ft 185 kts 195°
2026-05-05 10:41 59.76706 18.00194 2441 ft 186 kts 196°
2026-05-05 10:41 59.75430 17.99729 2268 ft 186 kts 196°
2026-05-05 10:41 59.74160 17.99267 2031 ft 185 kts 196°
2026-05-05 10:41 59.72901 17.98807 1782 ft 184 kts 194°
2026-05-05 10:42 59.70810 17.98045 1360 ft 184 kts 196°
2026-05-05 10:42 59.69550 17.97586 1102 ft 184 kts 195°
2026-05-05 10:42 59.68302 17.97132 832 ft 176 kts 193°
2026-05-05 10:43 59.67175 17.96727 633 ft 155 kts 195°
2026-05-05 10:43 59.65820 17.96234 351 ft 145 kts 195°
2026-05-05 10:43 59.64834 17.95876 161 ft 144 kts 195°
2026-05-05 10:43 59.64220 17.95623 144 ft 114 kts 191°
2026-05-05 10:44 59.63672 17.95450 145 ft 39 kts 189°
2026-05-05 10:44 59.63473 17.95358 144 ft 28 kts 203°
2026-05-05 10:44 59.63329 17.95178 139 ft 23 kts 219°
2026-05-05 10:44 59.63253 17.95009 138 ft 15 kts 259°
2026-05-05 10:45 59.63315 17.94915 138 ft 14 kts
2026-05-05 10:45 59.63425 17.94953 138 ft 18 kts 10°
2026-05-05 10:45 59.63557 17.94999 138 ft 21 kts 10°
2026-05-05 10:45 59.63711 17.95058 138 ft 24 kts 10°
2026-05-05 10:46 59.63873 17.95110 138 ft 24 kts
2026-05-05 10:46 59.64029 17.95163 138 ft 19 kts 19°
2026-05-05 10:46 59.64169 17.95222 138 ft 22 kts 10°
2026-05-05 10:46 59.64320 17.95274 138 ft 20 kts 11°
2026-05-05 10:47 59.64470 17.95331 138 ft 23 kts
2026-05-05 10:47 59.64641 17.95392 138 ft 26 kts 11°
2026-05-05 10:47 59.64816 17.95456 138 ft 22 kts 11°
2026-05-05 10:47 59.64979 17.95513 138 ft 25 kts
2026-05-05 10:48 59.65158 17.95452 138 ft 28 kts 345°
2026-05-05 10:48 59.65335 17.95361 138 ft 24 kts 345°
2026-05-05 10:48 59.65490 17.95281 138 ft 24 kts 344°
2026-05-05 10:48 59.65646 17.95197 138 ft 20 kts 345°
2026-05-05 10:49 59.65740 17.95083 138 ft 17 kts 294°
2026-05-05 10:49 59.65728 17.94843 138 ft 19 kts 256°
2026-05-05 10:49 59.65693 17.94607 138 ft 19 kts 256°
2026-05-05 10:49 59.65660 17.94335 138 ft 22 kts 256°
2026-05-05 10:50 59.65627 17.94060 138 ft 19 kts 256°
2026-05-05 10:50 59.65593 17.93888 138 ft 13 kts 218°
2026-05-05 10:50 59.65528 17.93888 138 ft 7 kts 168°
2026-05-05 10:50 59.65487 17.93880 138 ft 7 kts 219°
2026-05-05 10:51 59.65469 17.93792 138 ft 6 kts 255°
2026-05-05 10:51 59.65464 17.93758 138 ft 0 kts 256°
2026-05-05 10:51 59.65464 17.93756 138 ft 1 kts 256°
2026-05-05 10:51 59.65463 17.93748 138 ft 0 kts 256°